Satellite: AO-27
Catalog number: 22825
Epoch time:      06214.51401940
Element set:    0464
Inclination:      098.2864 deg
RA of node:       194.0767 deg
Eccentricity:    0.0009081
Arg of perigee:   120.3079 deg
Mean anomaly:     239.8983 deg
Mean motion:   14.29178660 rev/day
Decay rate:      -1.12e-06 rev/day^2
Epoch rev:           66997
Checksum:              328

Satellite: IO-26
Catalog number: 22826
Epoch time:      06215.80590366
Element set:     154
Inclination:      098.2801 deg
RA of node:       196.4968 deg
Eccentricity:    0.0009666
Arg of perigee:   114.1584 deg
Mean anomaly:     246.0607 deg
Mean motion:   14.29423424 rev/day
Decay rate:        4.0e-08 rev/day^2
Epoch rev:           67023
Checksum:              305

Satellite: PO-28
Catalog number: 22829
Epoch time:      06214.79714621
Element set:    0438
Inclination:      098.2707 deg
RA of node:       196.7383 deg
Eccentricity:    0.0010801
Arg of perigee:   095.3983 deg
Mean anomaly:     264.8404 deg
Mean motion:   14.30117936 rev/day
Decay rate:       -3.1e-07 rev/day^2
Epoch rev:           67030
Checksum:              310

Satellite: TO-31
Catalog number: 25396
Epoch time:      06216.09338155
Element set:     590
Inclination:      098.4756 deg
RA of node:       274.7053 deg
Eccentricity:    0.0003475
Arg of perigee:   063.8747 deg
Mean anomaly:     296.2789 deg
Mean motion:   14.23709454 rev/day
Decay rate:       -9.8e-07 rev/day^2
Epoch rev:           41916
Checksum:              345

Satellite: GO-32
Catalog number: 25397
Epoch time:      06215.71820617
Element set:      76
Inclination:      098.4632 deg
RA of node:       270.9864 deg
Eccentricity:    0.0002115
Arg of perigee:   079.3584 deg
Mean anomaly:     280.7837 deg
Mean motion:   14.23107675 rev/day
Decay rate:      -1.98e-06 rev/day^2
Epoch rev:           41900
Checksum:              317

Satellite: UO-36
Catalog number: 25693
Epoch time:      06216.05805133
Element set:     106
Inclination:      064.5580 deg
RA of node:       095.6778 deg
Eccentricity:    0.0023734
Arg of perigee:   326.2662 deg
Mean anomaly:     033.6912 deg
Mean motion:   14.78608033 rev/day
Decay rate:       -6.4e-07 rev/day^2
Epoch rev:           39286
Checksum:              311

Satellite: MO-46
Catalog number: 26548
Epoch time:      06216.05602158
Element set:     560
Inclination:      064.5568 deg
RA of node:       083.6768 deg
Eccentricity:    0.0046123
Arg of perigee:   240.5313 deg
Mean anomaly:     119.1197 deg
Mean motion:   14.82999399 rev/day
Decay rate:        3.7e-07 rev/day^2
Epoch rev:           31650
Checksum:              322

Satellite: NO-44
Catalog number: 26931
Epoch time:      06214.59870731
Element set:    0368
Inclination:      067.0506 deg
RA of node:       248.1336 deg
Eccentricity:    0.0006377
Arg of perigee:   253.0610 deg
Mean anomaly:     106.9814 deg
Mean motion:   14.29448191 rev/day
Decay rate:       2.19e-06 rev/day^2
Epoch rev:           25256
Checksum:              304

Satellite: SO-50
Catalog number: 27607
Epoch time:      06215.74957445
Element set:      86
Inclination:      064.5603 deg
RA of node:       328.7108 deg
Eccentricity:    0.0038753
Arg of perigee:   129.0711 deg
Mean anomaly:     231.3798 deg
Mean motion:   14.71159815 rev/day
Decay rate:        1.8e-07 rev/day^2
Epoch rev:           19442
Checksum:              315

Satellite: CO-57
Catalog number: 27848
Epoch time:      06214.56330360
Element set:     783
Inclination:      098.7172 deg
RA of node:       221.5207 deg
Eccentricity:    0.0009443
Arg of perigee:   299.4542 deg
Mean anomaly:     060.5692 deg
Mean motion:   14.20276507 rev/day
Decay rate:        4.6e-07 rev/day^2
Epoch rev:           16022
Checksum:              300

Satellite: AO-51
Catalog number: 28375
Epoch time:      06215.30953248
Element set:     594
Inclination:      098.1609 deg
RA of node:       265.1899 deg
Eccentricity:    0.0085217
Arg of perigee:   064.8346 deg
Mean anomaly:     296.1652 deg
Mean motion:   14.40528032 rev/day
Decay rate:        5.0e-08 rev/day^2
Epoch rev:           10994
Checksum:              324

Satellite: XO-53
Catalog number: 28894
Epoch time:      06215.75444906
Element set:     616
Inclination:      098.1599 deg
RA of node:       113.3092 deg
Eccentricity:    0.0018447
Arg of perigee:   027.5226 deg
Mean anomaly:     332.6938 deg
Mean motion:   14.59493402 rev/day
Decay rate:        5.4e-07 rev/day^2
Epoch rev:            4091
Checksum:              322

Satellite: CO-56
Catalog number: 28941
Epoch time:      06215.12231223
Element set:     160
Inclination:      098.1729 deg
RA of node:       238.3901 deg
Eccentricity:    0.0273397
Arg of perigee:   307.7089 deg
Mean anomaly:     049.9637 deg
Mean motion:   15.26515501 rev/day
Decay rate:     1.4012e-04 rev/day^2
Epoch rev:            2470
Checksum:              297

/EX
SB KEPS @ AMSAT  $ORB06216.W
Orbital Elements  06216.WEATHER

HR AMSAT ORBITAL ELEMENTS FOR WEATHER SATELLITES
FROM WA5QGD FORT WORTH,TX August 4, 2006
Send SUBSCRIBE KEPS/UNSUBSCRIBE KEPS to majordomo@amsat.org only
BID: ORB06216.W
TO ALL RADIO AMATEURS BT

Satellite: NOAA-10
Catalog number: 16969
Epoch time:      06215.46340237
Element set:     296
Inclination:      098.7597 deg
RA of node:       227.1968 deg
Eccentricity:    0.0012827
Arg of perigee:   017.1198 deg
Mean anomaly:     343.0415 deg
Mean motion:   14.27300144 rev/day
Decay rate:       -3.4e-07 rev/day^2
Epoch rev:            3390
Checksum:              299

